Wind_Speed
54 53 51 51 51 51 52 52 53 54 57 57 54 55 57 58 60 61 63 63 58 56 59 62 62 61 63 64 64 64 63 64 61 59 62 64 61 60 60 59 59 58 56 55 53 51 49 47 45 45 46 46 46 47 48 48 46 42 41 43 44 43 42 47 49 45 45 45 42 42 41 41 40 37 35 33 32 33 33 31 30 30 29 29 31 30
51 49 48 49 48 48 49 48 49 53 55 53 52 55 57 56 56 57 61 63 57 52 54 59 60 59 60 60 61 61 60 63 62 57 56 60 61 59 58 58 57 56 55 54 52 48 46 45 44 42 41 40 43 46 47 46 42 38 40 42 44 43 42 47 50 45 45 45 42 39 39 40 41 39 37 36 35 33 32 31 30 31 33 34 36 36
49 47 47 47 46 46 45 45 47 51 52 50 52 55 53 53 55 55 58 61 57 51 51 55 57 56 57 57 57 58 58 59 61 58 53 55 60 57 55 55 54 53 53 52 51 48 45 43 42 42 40 38 40 41 41 41 39 37 40 42 44 45 45 50 53 48 45 45 43 39 36 38 39 37 35 34 35 34 33 32 30 32 35 36 38 37
47 47 45 44 44 43 43 44 46 48 48 47 50 51 50 52 53 53 56 59 57 51 46 50 55 54 54 55 53 55 57 56 58 58 52 50 55 56 53 54 52 50 51 51 50 48 45 42 41 40 38 38 40 39 38 39 41 40 41 44 46 48 49 54 55 50 46 44 42 40 37 38 39 38 36 34 35 36 36 33 31 32 36 38 38 37
47 47 43 41 42 41 42 44 43 44 45 44 46 46 47 48 48 50 54 55 53 48 44 48 53 51 51 52 52 54 56 55 55 56 53 48 51 54 53 53 51 48 49 51 50 46 43 39 38 35 33 34 36 36 37 37 39 41 42 44 47 48 50 53 54 51 46 42 40 40 39 39 39 39 38 35 36 37 35 33 32 34 37 39 39 37
48 47 41 39 42 41 41 41 40 42 42 42 42 42 44 45 45 47 50 52 49 46 46 49 51 50 50 51 52 54 56 55 54 55 55 51 50 53 55 53 52 49 47 50 50 45 41 38 34 34 35 35 33 34 36 36 37 41 42 44 46 47 48 50 51 50 47 42 40 40 38 38 38 38 38 37 38 36 34 34 36 37 38 39 39 38
47 47 41 39 42 40 40 40 39 41 41 41 41 42 44 43 43 44 47 50 48 46 48 49 49 49 49 50 53 55 56 56 56 55 56 55 52 53 55 53 51 50 47 49 50 45 42 39 35 38 40 40 43 42 38 38 38 39 40 43 45 47 48 48 48 48 47 44 41 40 39 38 37 37 38 39 39 38 38 40 39 37 37 38 39 38
48 48 42 40 42 41 41 41 40 41 41 41 43 43 42 41 42 45 49 51 48 48 49 49 50 50 49 51 55 58 58 57 58 58 56 54 53 51 51 51 51 51 48 47 48 44 42 40 36 37 41 45 51 47 38 37 38 37 38 42 44 46 47 47 47 47 47 45 44 42 41 40 39 38 39 40 39 39 41 41 37 34 35 36 38 40
49 48 42 41 44 43 43 43 42 41 42 44 46 44 42 42 46 50 51 51 50 51 49 49 54 54 51 53 57 59 60 59 58 60 57 52 52 49 47 49 49 50 48 44 44 43 40 39 37 37 42 50 51 45 37 33 35 37 38 40 43 44 44 44 44 44 44 45 45 44 43 43 43 42 43 43 41 40 39 38 36 36 38 40 41 42
49 48 44 42 45 47 45 44 43 42 43 47 47 46 46 47 50 52 51 51 53 52 49 51 57 58 54 54 57 60 62 61 57 57 57 52 50 49 48 47 44 46 48 42 39 38 37 39 41 39 43 51 50 45 39 34 35 37 37 39 42 43 42 42 42 41 43 45 43 43 45 45 45 45 46 46 44 42 40 40 40 41 42 43 43 43
49 48 46 45 48 50 47 45 44 44 45 49 48 48 49 50 51 51 51 53 54 52 51 54 59 60 57 55 58 60 60 59 54 53 56 53 50 49 46 43 40 41 42 39 38 39 38 41 42 39 42 48 49 46 41 35 35 37 38 37 40 43 43 45 45 43 44 44 40 42 46 45 46 47 47 46 46 46 46 46 45 46 46 44 43 44
51 49 48 49 50 49 48 47 48 47 47 49 49 50 50 50 51 52 52 55 55 54 55 57 59 59 58 57 59 57 54 54 51 48 49 48 47 46 43 39 37 35 34 36 40 42 40 39 39 39 40 45 47 46 42 37 33 36 39 38 38 42 43 45 46 44 44 43 40 42 46 45 46 48 48 49 49 50 50 51 50 49 48 46 44 44
53 51 49 50 51 49 49 50 50 48 48 50 51 51 52 53 53 52 53 56 56 55 56 58 57 57 56 56 54 49 45 46 45 42 40 39 38 38 38 35 31 27 27 31 34 38 40 39 37 36 35 40 44 43 42 39 35 36 40 39 38 41 44 45 46 45 45 43 40 40 42 42 44 46 48 50 52 52 52 53 54 51 49 47 45 44
54 52 50 50 52 51 50 51 51 49 49 51 52 53 53 55 55 53 54 57 57 55 55 56 54 52 51 49 45 41 39 40 38 35 34 34 33 33 32 32 30 26 24 23 25 29 35 35 32 29 29 32 35 38 40 40 39 39 41 42 42 43 45 48 49 49 49 44 38 39 42 42 43 45 47 47 49 52 53 54 52 49 46 44 44 44
54 53 52 52 53 52 51 51 51 50 50 51 53 54 54 56 56 55 56 57 55 53 53 52 49 46 44 41 38 37 35 36 36 33 31 31 31 30 30 31 32 29 23 20 20 23 26 26 23 24 25 23 26 33 37 38 40 43 45 46 47 47 47 49 51 52 53 50 45 44 44 42 42 43 44 45 46 47 48 47 45 43 43 42 43 44
55 54 55 53 53 53 52 52 52 51 51 52 53 54 54 56 57 56 57 57 54 50 48 46 43 42 39 33 32 34 34 35 34 31 30 28 25 25 28 30 31 31 27 23 22 23 25 24 22 25 26 23 26 30 30 32 39 47 51 50 51 50 48 49 51 54 56 56 54 53 47 41 40 42 43 42 41 42 43 42 40 39 41 42 43 45
55 55 55 54 53 53 53 54 52 51 52 52 53 54 55 56 57 57 57 55 51 46 43 39 38 39 35 26 24 27 29 30 29 27 26 23 22 23 23 23 26 29 29 27 26 29 31 29 26 28 28 27 29 28 26 31 41 51 56 53 52 52 49 47 50 54 58 59 59 59 54 46 42 45 47 43 39 41 43 42 41 40 42 43 43 44
55 55 55 54 54 54 53 53 51 50 52 52 53 54 55 56 57 56 54 51 46 41 37 34 34 34 28 21 20 22 23 23 24 24 22 18 17 18 16 18 22 27 30 31 30 31 34 33 31 32 30 27 28 28 31 39 48 56 57 52 51 52 50 47 47 51 59 62 61 60 59 54 51 50 50 47 45 46 46 44 42 41 43 45 46 47
55 55 55 55 54 55 53 51 51 50 51 52 53 54 55 56 57 55 51 46 41 36 32 29 28 27 23 21 22 22 23 23 20 19 19 16 14 14 15 18 21 26 33 37 35 32 31 26 26 28 25 22 22 26 36 45 50 52 50 46 46 48 49 48 45 47 56 62 63 61 59 59 58 57 55 52 51 52 52 49 45 43 44 46 49 52
55 55 55 54 54 54 52 51 51 51 51 52 53 53 53 55 55 52 46 40 35 31 29 26 24 22 22 26 25 22 24 23 18 16 18 17 18 23 27 28 28 30 36 43 45 43 38 29 24 25 26 26 26 26 35 43 46 46 42 40 40 41 45 49 46 44 49 57 62 62 61 60 60 62 61 59 57 56 55 53 50 49 50 51 53 55
55 55 55 54 54 52 50 51 52 50 50 51 52 52 52 53 52 47 40 35 32 30 28 26 22 19 19 24 25 23 25 24 21 21 21 22 26 32 36 38 41 42 43 47 49 48 48 43 39 39 39 40 40 37 34 35 40 44 42 42 43 41 43 49 50 48 46 49 56 59 61 60 59 60 61 61 59 56 53 52 51 52 54 56 57 56
53 54 54 53 51 50 50 51 51 49 49 51 52 51 50 48 45 40 34 31 29 28 29 28 24 20 20 23 24 23 25 27 28 28 28 30 34 37 37 39 44 47 49 52 52 50 51 51 51 52 52 49 48 49 43 32 32 39 40 43 46 46 46 49 54 55 51 47 49 53 57 58 56 56 57 59 56 52 50 50 51 53 54 55 54 52
52 52 52 50 49 50 50 51 51 49 49 50 50 49 47 44 38 34 30 27 26 25 27 28 26 23 23 22 21 21 23 26 30 34 35 35 38 40 40 39 41 44 47 51 53 53 52 52 54 57 59 59 55 51 46 38 32 33 37 40 44 49 54 55 56 57 53 47 46 48 53 56 55 52 52 54 55 53 50 48 48 49 50 50 49 48
52 52 51 50 50 51 51 51 50 49 48 48 48 47 45 40 33 30 27 23 23 24 25 27 26 25 26 24 23 24 25 25 28 35 39 38 39 44 46 44 43 43 44 46 49 51 53 53 54 55 58 63 60 48 42 43 43 40 43 48 49 52 58 61 60 59 55 48 43 43 48 54 56 54 49 48 50 51 50 47 46 47 47 46 46 45
53 52 51 49 49 50 50 50 49 48 47 47 45 43 40 33 28 26 24 21 21 23 27 29 25 24 28 29 31 33 32 30 33 39 42 41 41 43 46 48 48 45 43 44 45 47 50 51 52 53 53 57 61 54 41 41 49 51 52 57 58 56 57 61 60 56 52 47 41 40 46 52 56 57 54 50 49 51 52 51 49 47 45 45 45 45
51 50 49 49 49 49 49 48 46 45 43 41 39 37 34 32 28 25 23 21 19 19 24 29 27 26 29 31 35 39 37 36 38 42 46 47 46 45 45 47 49 47 44 43 42 42 45 47 48 50 50 51 57 59 48 41 48 56 55 55 57 56 53 54 55 49 44 42 40 40 45 51 55 57 57 54 53 53 54 54 52 49 48 47 46 46
49 48 47 48 48 48 47 44 42 41 39 38 39 38 35 32 26 24 25 22 19 18 22 28 30 31 32 32 35 39 39 38 40 44 47 50 50 49 48 48 49 48 45 42 40 40 40 42 44 46 49 50 52 58 57 51 50 52 51 48 51 53 50 48 48 44 37 38 40 43 46 50 53 55 56 56 56 55 54 54 52 51 51 50 49 48
49 49 48 48 48 47 46 45 44 44 42 41 39 36 34 29 21 20 22 21 19 21 25 29 31 33 35 35 36 38 40 42 43 44 46 49 50 50 48 47 47 48 46 42 39 38 37 38 40 43 46 49 52 55 59 60 55 50 47 46 48 52 50 45 41 36 31 34 40 45 49 51 53 54 55 55 55 54 54 53 52 51 51 50 49 48
52 52 51 51 50 49 48 46 44 42 42 41 36 30 29 27 21 18 18 19 22 26 28 29 32 36 37 38 39 40 42 42 42 41 42 44 47 48 48 46 45 45 46 43 39 37 34 35 38 42 44 48 52 54 58 62 59 51 45 47 49 48 45 42 36 30 30 35 40 46 50 51 53 55 55 53 51 49 50 50 51 52 51 50 48 47
53 53 53 53 53 51 49 47 43 40 42 42 38 33 30 28 25 20 20 23 27 29 29 30 34 38 38 38 40 43 43 43 43 40 39 40 41 44 47 47 46 45 45 43 40 37 35 35 38 41 44 47 50 53 56 59 60 55 48 47 48 45 41 40 37 34 36 39 40 43 45 46 50 52 51 49 47 45 45 47 50 51 51 50 48 47
55 54 53 54 54 52 50 48 45 44 46 45 41 40 38 33 29 26 27 30 32 33 33 33 34 37 39 39 41 42 43 43 42 40 39 38 37 38 42 45 45 45 45 44 42 39 36 36 38 41 44 46 48 52 55 56 58 57 51 46 46 46 43 42 40 39 40 40 39 40 39 38 43 46 45 45 45 45 45 46 49 50 49 49 49 47
56 56 55 55 55 53 52 50 48 47 47 45 43 43 43 38 35 34 34 35 36 36 38 39 38 39 40 42 43 44 45 44 42 40 39 38 36 34 35 39 42 42 42 42 41 39 37 37 39 41 43 45 46 49 52 54 56 56 51 47 48 48 46 44 42 40 41 43 45 46 43 41 43 45 44 44 44 44 44 45 47 47 47 48 47 47
58 58 57 57 56 55 53 52 50 49 48 48 46 45 44 42 40 41 41 41 41 40 41 43 44 43 42 43 45 45 45 45 45 44 42 41 40 37 33 33 37 39 39 39 38 38 38 37 39 41 42 43 45 48 50 53 55 57 53 49 50 50 47 45 43 40 39 44 48 49 48 49 49 48 46 45 45 44 45 46 46 46 46 46 45 46
60 59 58 58 58 56 55 54 52 51 50 50 49 47 46 45 43 44 48 48 46 46 46 46 47 47 45 45 46 45 43 43 44 45 45 43 42 41 37 34 33 35 37 37 38 38 38 38 39 40 42 43 45 47 51 53 55 58 57 54 53 52 49 46 44 40 40 46 49 48 47 50 51 50 47 45 44 44 44 44 43 43 44 44 44 46
61 60 60 60 59 58 57 56 54 52 50 49 49 49 49 49 47 47 50 52 50 48 48 47 47 48 48 47 47 46 44 44 43 44 45 44 42 42 41 36 32 32 34 36 37 38 38 38 39 41 42 44 46 48 51 54 56 58 60 60 57 55 52 48 45 44 45 47 49 47 46 48 50 49 47 45 43 42 42 42 42 42 43 45 46 47
62 62 61 62 61 60 59 57 55 53 51 50 50 50 52 54 52 49 51 53 53 51 50 49 48 48 48 48 48 47 45 45 44 44 44 44 44 43 42 40 34 31 33 35 37 38 39 39 40 41 43 45 47 50 53 56 57 59 63 64 60 57 55 50 45 45 46 46 46 46 47 48 49 49 49 48 45 43 42 43 45 46 47 49 50 51
64 64 64 64 64 62 60 57 54 52 52 52 51 51 55 58 56 53 52 52 53 53 52 52 52 51 50 50 51 51 50 48 46 45 44 44 44 43 43 42 39 34 33 34 36 38 40 40 41 42 44 46 49 52 56 58 59 61 65 67 62 57 55 51 46 45 45 45 45 47 49 50 51 51 52 52 51 49 49 50 51 51 53 56 58 59
66 67 66 66 65 62 59 56 54 53 52 52 52 53 57 60 60 57 53 50 49 51 51 51 52 53 53 52 52 54 55 53 50 48 47 46 45 43 42 42 41 38 34 34 35 38 40 41 42 43 45 48 51 54 57 60 62 64 67 68 64 59 56 53 49 46 46 47 48 49 50 51 52 53 54 54 54 55 56 56 56 55 57 59 61 62
66 66 65 65 63 60 57 56 55 54 53 54 54 56 59 62 61 59 56 51 48 47 49 50 50 51 53 54 55 56 57 57 55 51 50 49 48 46 43 41 41 40 37 35 35 38 41 42 43 45 47 50 53 56 59 61 64 66 67 67 65 61 59 57 55 51 49 49 50 51 52 52 53 54 55 55 55 55 56 57 57 56 56 57 58 59
62 62 62 62 60 57 55 54 54 55 56 56 57 59 61 62 61 59 56 54 50 47 47 49 48 48 50 53 56 57 56 56 57 56 55 53 52 50 48 45 42 41 40 38 36 38 41 44 45 46 49 52 56 58 61 64 67 68 67 67 65 63 61 61 60 59 55 52 52 54 55 55 54 54 55 56 56 55 55 55 56 57 57 57 57 57
59 58 58 57 56 54 53 53 54 56 58 58 59 60 61 61 61 59 55 53 52 49 48 48 47 47 48 50 54 55 55 55 57 58 58 57 56 54 52 49 45 42 41 40 38 38 42 45 47 48 51 55 58 61 63 66 69 70 68 67 66 63 61 61 62 63 62 60 59 58 59 58 56 56 56 58 58 58 56 56 56 57 58 59 60 61
55 53 52 53 52 52 52 53 56 58 59 59 59 60 60 59 60 59 55 52 52 51 49 48 48 47 46 47 49 51 52 54 54 55 55 55 56 55 53 50 48 45 43 42 40 40 42 46 49 50 53 58 60 62 65 68 71 71 70 68 66 64 61 60 62 64 66 66 65 63 62 60 59 59 59 60 60 60 59 58 58 59 59 60 61 62
48 47 47 48 50 52 54 56 57 59 60 60 59 60 60 59 59 58 56 53 52 51 50 49 49 48 47 47 47 48 49 51 52 53 53 53 54 54 53 51 49 47 45 44 43 42 43 46 50 52 55 60 63 64 67 70 72 73 71 70 69 67 64 62 63 66 68 68 67 66 64 63 63 63 63 63 63 61 61 61 61 61 61 61 61 61
42 42 42 44 47 51 54 57 59 60 61 61 60 60 61 61 60 58 56 54 52 51 51 50 49 49 48 48 47 47 48 48 49 50 51 52 52 53 53 52 50 49 47 46 45 44 44 46 51 54 57 61 65 67 68 71 74 74 73 72 72 71 69 67 67 67 68 70 70 68 67 66 66 66 66 66 65 64 63 63 62 62 62 62 62 62
40 39 40 42 46 49 53 57 60 62 63 63 62 61 62 62 60 58 56 55 53 52 52 52 51 51 51 50 50 49 49 49 48 49 50 52 52 53 54 53 52 51 49 48 48 47 46 47 50 54 58 63 67 69 70 73 76 76 75 73 74 75 74 72 70 70 69 70 71 71 70 70 69 70 70 70 69 68 67 66 65 64 64 64 64 65
38 38 39 41 44 48 52 57 60 61 62 63 63 62 62 62 61 58 56 56 55 54 54 54 54 54 53 53 53 52 51 51 50 49 50 52 53 54 55 55 55 54 52 51 50 50 49 48 49 53 59 64 68 71 73 75 77 79 78 76 75 77 79 77 75 73 72 72 73 73 73 73 73 73 73 73 73 72 71 71 70 70 70 69 69 69
37 37 39 41 44 47 51 56 58 60 62 62 62 62 61 61 60 59 57 57 57 56 56 55 56 56 56 55 55 55 54 54 53 52 52 53 54 55 56 57 57 56 55 54 53 52 52 51 51 53 57 63 69 73 76 77 79 80 81 80 77 77 79 80 79 77 76 75 75 75 76 76 76 76 77 76 76 75 75 75 75 74 74 74 73 73
35 36 38 41 44 47 51 54 57 59 60 61 60 60 60 59 59 57 57 57 57 57 58 57 57 58 58 58 57 57 57 56 55 55 55 55 57 58 58 58 59 59 58 58 56 55 54 54 54 54 57 61 69 75 78 80 81 82 83 84 82 80 80 82 82 82 80 79 79 79 78 77 77 77 78 78 77 77 77 78 78 77 76 76 76 76
33 35 37 41 43 46 49 53 55 57 58 59 58 57 56 55 53 52 51 52 53 54 56 57 58 59 60 60 60 59 59 59 58 57 57 57 58 60 61 61 61 61 61 61 60 59 58 57 57 58 58 61 66 73 79 82 83 84 85 86 86 85 84 83 84 84 84 83 82 82 82 81 80 79 79 79 79 79 78 79 79 79 79 79 79 79
31 33 36 40 43 45 48 51 53 54 54 53 53 52 51 49 47 45 44 44 45 46 48 50 54 57 60 61 62 61 61 61 60 60 60 60 60 61 62 63 64 64 64 64 64 63 62 61 60 60 61 63 65 70 77 82 86 86 87 88 89 89 89 88 87 87 86 86 86 86 86 86 86 85 83 82 82 82 82 82 81 81 81 82 82 83
28 30 34 37 40 43 45 47 47 47 46 46 45 45 44 43 42 42 42 42 42 43 44 45 47 50 55 59 62 63 64 63 63 62 62 62 62 63 63 65 65 66 66 67 67 66 66 66 65 64 64 65 67 69 73 79 84 88 89 90 90 91 92 92 91 91 90 90 89 89 89 89 90 90 90 89 88 87 86 86 86 86 86 86 86 86
Wind_Direction
267 266 266 265 263 262 261 261 261 261 261 261 261 261 259 259 261 262 263 261 258 258 260 262 261 260 262 264 265 265 265 263 262 262 265 266 265 264 265 265 266 265 265 263 263 261 258 254 251 251 251 253 259 261 259 260 259 254 247 245 246 244 241 241 244 243 238 239 244 247 248 247 245 245 250 255 258 258 255 251 248 250 255 254 251 255
267 267 267 265 263 262 262 263 263 261 261 261 260 259 259 260 261 263 264 263 260 259 260 261 262 262 262 264 265 266 266 266 264 261 263 266 266 264 264 264 264 264 264 263 261 258 256 253 247 244 247 252 258 260 260 259 255 248 242 240 241 239 235 237 243 244 239 238 241 244 246 247 247 248 252 254 255 255 252 248 249 253 258 259 261 269
266 267 267 266 265 265 265 264 262 260 260 261 259 260 261 262 262 262 264 265 262 260 261 264 265 265 264 264 266 266 265 265 266 263 260 262 265 264 263 262 262 262 262 261 260 257 254 251 246 244 247 253 257 261 262 258 252 246 241 236 236 235 230 232 239 242 240 238 237 241 245 246 246 248 251 254 253 252 250 250 253 255 256 260 267 272
266 266 267 268 267 267 265 262 261 261 262 260 260 261 262 261 262 263 263 264 265 264 264 265 266 266 266 266 266 266 265 264 265 265 261 259 263 264 262 260 259 258 259 258 257 256 254 250 246 245 245 251 257 263 265 261 255 247 239 234 232 233 233 234 240 242 241 240 237 239 243 243 244 247 251 253 251 250 250 252 252 250 252 258 264 268
264 265 268 270 268 266 264 263 263 263 262 261 261 262 262 262 262 263 264 266 268 267 264 262 264 265 266 266 266 266 265 264 264 265 263 258 257 260 260 259 258 255 254 257 256 254 253 248 243 241 241 250 262 267 267 262 255 246 237 233 232 233 235 239 244 245 243 243 242 240 243 245 245 247 249 249 249 249 250 252 253 255 257 259 261 262
263 265 268 269 268 266 266 266 265 263 263 262 262 261 261 262 263 265 268 270 269 268 264 261 263 265 265 265 266 265 266 265 263 263 263 259 255 257 258 258 258 255 251 253 256 254 251 244 235 230 229 234 246 254 258 256 250 244 237 233 231 232 236 242 247 248 245 244 246 244 244 246 245 244 245 247 247 248 254 261 266 267 264 258 256 256
264 264 266 268 268 267 267 266 264 263 263 262 261 261 261 264 267 268 269 269 268 267 266 265 265 265 266 267 266 265 265 265 264 262 262 261 258 256 257 259 259 257 251 248 253 255 251 244 234 228 227 226 227 230 240 248 246 242 239 235 231 230 234 242 247 250 249 245 245 246 244 244 245 244 245 246 246 251 262 270 271 267 260 252 251 256
263 263 264 267 267 266 266 265 264 263 264 264 263 262 265 269 270 268 267 268 269 269 269 270 269 266 266 267 267 266 265 264 265 264 262 262 262 260 259 259 257 257 255 250 252 255 251 247 240 231 228 225 223 221 228 242 244 242 241 237 232 229 232 239 245 249 250 247 245 246 245 243 244 245 247 248 251 260 267 267 262 254 248 247 253 264
264 264 264 264 265 265 264 264 264 265 267 266 266 267 269 269 268 267 268 271 272 271 272 275 274 269 266 265 267 267 266 264 265 266 266 264 265 264 261 258 256 256 256 253 253 255 253 248 242 235 227 223 223 223 225 234 242 244 243 238 233 230 230 235 242 247 250 249 246 246 246 245 245 247 249 251 256 263 263 255 249 246 246 252 260 268
264 265 264 262 263 263 263 264 266 268 268 268 269 271 270 268 268 270 272 273 274 274 276 278 276 272 268 267 268 267 266 265 265 268 269 268 265 263 260 258 258 255 253 251 250 252 252 247 241 234 226 223 224 223 225 234 243 246 246 240 234 231 229 230 232 236 242 245 244 246 249 249 249 249 251 253 254 256 255 248 244 246 252 259 264 268
263 264 264 260 259 261 264 266 268 267 267 269 270 270 269 270 271 272 273 274 275 276 277 277 276 275 273 271 268 266 266 268 268 268 268 267 264 261 260 258 257 254 252 250 246 242 243 243 240 234 228 227 226 221 225 237 243 246 247 243 236 232 230 228 226 227 234 238 241 247 250 250 250 251 252 252 252 253 254 252 251 254 260 266 270 270
261 260 261 261 261 264 266 266 266 267 268 269 270 271 271 272 272 273 274 275 276 277 277 277 276 276 275 272 269 268 269 269 268 267 266 266 263 260 260 257 254 252 247 244 242 239 239 240 238 235 231 228 225 224 230 237 242 248 248 243 238 234 232 232 229 228 234 237 241 246 248 249 250 252 252 251 252 255 253 252 256 262 266 270 274 273
260 260 261 263 265 265 265 265 266 267 269 269 271 272 274 274 274 275 275 276 277 278 278 278 277 276 274 272 271 270 268 266 263 260 262 263 260 257 257 254 248 243 238 239 241 237 237 240 237 234 231 228 228 230 233 236 243 250 247 242 238 233 232 233 229 228 232 235 239 245 246 246 247 249 251 250 250 251 250 251 258 265 268 270 271 269
260 262 262 262 263 264 265 266 267 267 268 270 272 274 275 275 276 276 277 278 279 280 280 280 278 276 273 271 271 268 262 259 255 251 253 255 252 249 249 246 237 229 231 237 240 233 231 235 236 232 227 225 231 239 241 240 245 249 245 240 236 232 231 231 227 225 227 227 229 237 241 241 243 244 244 244 245 248 251 255 260 263 265 265 264 263
259 260 261 261 263 266 267 267 267 268 269 271 273 274 275 276 278 279 280 280 281 282 281 280 278 275 272 269 266 260 254 253 250 245 246 248 246 244 243 239 231 223 219 221 227 232 232 230 225 218 214 217 228 241 247 247 248 249 247 241 236 233 231 230 227 224 225 223 219 225 234 239 242 242 240 240 245 250 253 255 257 258 259 259 261 261
258 259 261 262 264 266 267 267 268 270 272 272 273 275 276 277 279 281 283 283 283 282 280 277 274 271 269 268 261 255 249 247 245 241 241 242 240 238 237 238 235 224 215 212 217 228 234 230 222 216 217 225 235 242 246 246 248 250 249 243 236 233 231 230 228 225 226 226 223 222 227 232 236 238 241 246 250 251 249 249 250 250 253 257 258 260
258 259 260 263 264 266 267 268 269 271 271 273 274 276 277 278 280 283 284 285 284 281 276 272 267 264 266 267 257 250 246 242 241 238 236 239 240 235 234 240 239 226 220 222 223 225 224 218 217 224 227 232 238 238 234 234 241 246 245 241 234 230 231 233 232 227 226 229 230 228 227 228 231 235 241 246 248 248 246 244 244 246 249 251 253 257
257 259 262 264 266 266 267 268 269 270 271 273 275 276 278 280 282 284 285 286 283 278 272 267 263 260 261 262 253 246 243 239 238 234 231 235 235 231 237 249 243 227 221 224 223 227 228 217 211 217 224 232 234 229 225 228 236 242 242 239 235 230 231 235 235 232 229 229 232 233 232 232 233 236 240 241 241 244 245 244 246 246 245 246 250 253
259 261 263 265 265 266 267 268 268 269 271 273 275 277 279 281 284 286 285 284 280 274 268 262 259 256 245 235 236 242 242 239 237 230 222 218 209 210 226 241 240 231 225 221 215 217 221 213 207 210 213 221 226 227 231 232 235 240 242 240 239 236 234 235 237 235 232 231 232 235 237 237 238 240 242 240 240 244 245 247 250 250 247 249 253 255
259 261 262 263 264 266 268 268 268 269 271 273 275 277 280 282 284 285 283 280 275 270 267 261 254 251 238 221 220 232 238 236 237 231 218 209 202 206 212 212 215 223 224 220 216 212 209 200 196 202 205 206 209 223 239 240 239 242 242 241 244 244 238 234 233 233 233 233 233 235 238 237 239 243 245 243 245 248 249 251 253 251 250 253 257 261
258 259 260 260 262 264 266 267 268 270 272 274 276 278 280 283 284 282 278 273 271 268 266 262 249 239 230 217 212 223 228 222 223 226 219 214 215 217 217 212 212 218 220 219 217 215 211 204 196 196 198 201 204 213 228 237 241 242 241 241 242 242 239 234 232 233 235 236 236 236 237 237 238 243 245 246 248 250 250 251 251 250 251 255 260 264
254 255 256 258 261 262 264 265 267 271 273 275 277 279 281 283 282 280 272 266 265 262 257 257 253 234 219 213 210 218 222 217 218 218 214 218 224 225 223 219 218 221 222 221 220 219 217 211 205 201 199 201 207 215 221 228 239 243 245 246 243 238 235 233 232 234 237 239 238 238 238 238 240 242 243 245 247 248 249 251 252 253 254 256 259 262
251 253 255 258 260 261 263 265 269 273 274 275 277 279 280 280 278 274 269 263 259 255 250 254 254 238 218 210 207 214 221 224 227 223 216 219 226 226 225 225 225 227 227 225 223 223 222 217 213 210 208 210 215 220 222 222 226 232 236 240 241 237 232 230 230 232 235 237 239 240 240 240 241 243 244 243 244 246 249 252 253 253 254 255 258 260
252 253 255 256 258 261 264 267 270 272 273 274 276 277 278 279 276 269 267 263 253 245 242 244 245 233 217 205 202 210 216 221 228 228 223 223 226 228 227 229 232 233 233 231 228 226 226 222 219 217 214 214 215 217 219 218 216 219 223 227 230 231 229 227 227 229 233 236 237 239 241 241 241 244 245 243 242 242 245 250 253 253 254 255 257 258
251 252 254 257 260 263 265 267 269 270 271 273 274 275 276 276 272 267 266 260 246 239 237 236 235 228 217 207 205 212 217 219 226 230 228 227 227 228 227 229 233 235 234 235 233 230 228 225 223 222 219 214 211 211 215 217 216 217 221 224 226 227 227 226 225 228 232 236 235 235 241 243 242 243 244 245 244 243 246 251 254 254 255 256 257 258
251 253 256 258 259 261 262 264 267 269 270 270 272 274 272 265 260 260 261 254 243 242 241 235 229 225 222 215 210 212 216 221 227 231 231 229 228 229 229 230 233 235 235 235 235 232 229 227 225 223 221 216 212 211 210 212 216 217 220 223 225 226 229 226 223 224 229 232 231 231 238 243 243 242 245 248 249 249 250 252 253 254 255 256 258 260
252 254 255 255 256 257 259 260 262 265 267 270 273 271 264 257 254 251 250 245 240 245 245 234 227 228 229 223 216 215 218 223 231 235 234 232 231 232 234 236 237 238 238 239 238 234 231 229 227 222 219 217 215 213 210 209 213 215 218 221 221 223 227 225 220 221 226 229 228 226 231 239 243 244 247 250 252 253 255 255 255 256 257 258 260 261
250 251 251 251 251 253 255 258 261 264 267 268 269 264 255 249 244 238 236 232 229 236 241 234 228 231 233 228 223 223 225 228 233 237 238 236 234 235 236 239 241 240 239 240 240 237 233 230 225 220 217 215 214 213 211 210 211 213 216 218 218 220 224 222 216 216 223 227 228 228 231 238 245 247 249 252 253 254 255 256 257 258 259 260 262 263
248 248 248 248 250 251 254 257 260 262 262 262 261 258 248 238 229 223 225 226 225 230 238 239 232 230 234 233 229 228 230 232 234 238 241 240 238 238 238 240 241 240 238 239 239 237 234 229 222 216 214 212 211 210 209 210 210 210 214 217 216 217 219 215 208 205 212 221 227 231 234 239 245 248 250 252 254 255 256 257 257 257 258 261 262 263
246 246 247 249 251 253 255 257 257 256 257 258 259 256 246 231 221 221 224 227 229 231 238 244 238 232 233 236 236 236 237 238 238 239 241 243 242 241 241 240 242 241 239 237 237 236 232 226 218 215 213 211 210 208 208 209 209 208 211 213 212 210 207 204 200 200 207 215 223 230 235 239 244 246 247 250 252 252 254 255 256 257 258 258 259 260
245 246 247 249 252 254 255 256 255 255 257 258 256 254 248 235 222 223 228 228 229 232 237 243 243 235 232 237 241 242 242 243 244 242 241 243 245 243 241 240 241 241 239 237 236 235 231 224 218 215 213 210 209 208 207 208 207 207 208 207 204 201 199 199 202 205 210 215 221 226 229 233 239 242 244 246 249 250 251 253 255 257 258 257 257 258
243 245 246 249 251 252 254 255 254 255 256 253 250 250 249 240 225 222 229 230 229 232 236 239 241 237 234 237 241 243 244 244 245 245 244 243 244 243 241 240 241 241 239 237 235 232 228 223 219 217 213 211 209 208 208 208 206 205 203 200 198 196 197 202 205 208 214 219 222 225 227 229 236 242 245 247 248 248 249 251 254 257 257 256 258 259
244 245 246 247 249 251 254 254 254 255 253 248 247 248 247 242 231 223 226 230 228 229 233 236 239 238 236 237 240 242 245 246 247 247 247 246 245 244 244 242 241 241 238 236 234 229 226 224 221 218 214 211 209 208 207 207 206 203 199 196 197 197 199 204 205 208 219 227 227 229 231 232 236 242 246 248 249 249 250 252 254 255 255 257 258 259
245 246 246 247 249 251 253 254 255 255 251 245 246 248 245 242 236 227 227 229 228 228 232 236 239 239 237 235 237 241 245 246 247 247 247 247 247 247 247 245 242 240 237 234 232 230 226 224 222 218 214 212 210 208 207 206 205 202 198 197 199 201 202 205 207 210 221 232 235 235 233 233 236 240 244 246 247 249 251 252 252 251 252 255 256 258
244 245 246 248 249 251 253 254 254 252 247 244 246 248 243 240 238 232 229 231 231 232 234 236 239 240 239 236 235 239 243 244 245 247 248 249 249 248 247 245 242 240 238 234 232 230 227 224 222 218 215 212 209 207 206 205 204 202 199 199 202 203 204 207 210 213 219 227 232 233 233 233 235 237 240 241 243 246 249 248 246 246 248 251 253 255
245 245 246 248 250 251 252 253 251 247 244 243 246 248 244 240 238 236 233 232 233 235 235 236 238 240 240 237 234 235 239 240 241 245 248 249 249 248 247 246 244 242 240 236 232 230 227 224 221 218 215 212 209 207 205 204 204 201 200 201 204 204 205 209 214 217 220 224 227 230 233 235 236 237 238 239 239 241 243 244 244 246 248 250 252 253
246 247 247 248 249 250 250 248 245 242 242 243 245 247 245 241 239 238 236 235 234 235 236 237 238 240 241 239 235 233 235 238 239 241 243 246 247 247 247 246 245 244 242 237 234 231 228 223 220 218 215 212 209 207 205 204 203 201 201 203 205 205 207 212 217 220 223 225 228 232 235 238 240 241 242 242 241 241 243 246 248 249 251 252 253 254
246 247 247 248 248 247 245 243 241 241 242 243 244 244 243 242 239 238 238 238 237 237 237 239 239 240 240 240 239 236 235 236 238 238 240 243 246 247 247 246 245 244 242 238 236 233 229 224 220 217 214 212 210 208 206 204 203 202 203 205 206 207 210 214 217 220 224 227 230 233 237 240 242 243 244 245 246 247 249 251 252 253 253 254 256 257
244 244 245 245 244 242 240 239 241 242 242 243 243 242 240 240 240 238 237 238 239 239 239 241 241 241 241 241 241 239 237 236 238 238 239 242 245 246 247 246 245 244 241 238 236 235 230 225 220 217 213 211 210 209 207 205 203 203 205 207 208 210 212 214 216 218 222 227 230 232 234 236 239 241 243 245 247 248 250 252 253 254 254 255 256 259
242 241 241 242 241 240 239 239 240 242 242 241 241 240 239 239 240 239 237 237 239 239 241 242 242 243 242 242 241 241 240 238 239 240 241 242 244 246 247 247 246 244 241 238 236 234 231 226 220 216 213 211 211 210 208 206 205 205 207 208 210 212 215 216 218 219 220 224 228 230 231 233 236 239 242 244 246 248 249 250 251 252 253 254 255 257
241 240 240 241 241 240 239 238 239 239 239 238 238 238 238 238 240 241 239 238 238 239 241 243 244 244 245 244 244 244 243 241 240 241 242 243 244 246 247 248 247 244 241 238 235 234 232 227 221 216 212 211 211 211 209 207 206 206 208 210 212 213 216 218 221 222 222 224 226 228 230 232 234 237 240 242 244 245 246 248 250 252 253 255 256 257
242 241 240 240 239 238 236 236 236 237 236 236 236 237 238 238 239 241 241 240 240 240 240 243 246 246 247 247 247 246 244 243 242 242 242 243 244 245 246 246 246 245 242 238 235 233 232 228 223 218 213 211 212 212 210 208 208 208 210 212 213 214 216 218 221 224 226 227 229 231 233 234 235 237 238 240 241 242 244 245 247 250 252 254 257 259
242 240 238 237 236 234 232 233 234 235 235 235 235 236 238 239 239 241 242 241 241 241 240 241 243 246 248 249 249 249 247 245 242 242 242 243 244 245 244 243 243 243 242 239 235 232 231 229 224 219 215 212 213 213 212 211 210 211 212 213 214 215 216 217 220 223 226 228 230 233 235 237 238 238 239 239 240 242 243 244 246 248 251 253 256 258
239 237 234 233 231 229 228 230 232 233 234 235 235 236 237 239 239 241 242 242 242 242 242 242 242 244 245 247 249 250 250 247 244 241 240 242 243 244 244 242 241 241 241 239 237 233 231 229 226 221 217 214 214 215 214 213 213 213 215 215 216 216 216 217 219 223 226 228 230 232 235 237 239 240 240 240 241 242 243 245 247 249 251 252 254 256
233 231 228 228 227 225 224 226 229 231 233 235 236 236 237 239 241 241 242 243 243 243 243 244 244 244 244 245 246 248 249 248 246 242 239 239 241 243 243 242 241 240 239 239 237 235 232 229 227 224 220 216 215 215 216 215 215 215 216 217 218 218 217 217 219 222 225 228 230 231 233 236 238 240 240 241 242 243 244 245 247 248 249 250 251 253
228 225 222 223 224 223 224 226 229 231 233 235 237 238 239 240 242 243 243 244 244 244 244 244 245 245 245 245 245 245 246 246 246 243 241 239 239 241 242 243 241 240 239 238 237 236 233 229 227 226 222 218 217 217 217 217 217 217 218 218 219 221 220 219 220 222 225 228 230 231 232 234 237 239 240 241 242 244 245 246 247 248 248 249 250 252
225 221 219 220 221 221 223 226 229 231 234 237 238 240 241 242 244 244 244 244 245 245 245 245 245 246 246 246 246 246 245 245 244 243 241 239 238 239 240 242 242 241 240 239 237 236 235 232 228 226 224 221 218 218 219 219 219 219 220 220 220 222 223 222 221 223 224 226 229 230 232 234 236 238 239 241 242 243 245 246 247 248 250 251 252 253
223 219 218 219 220 221 223 226 229 232 235 239 241 243 244 245 247 247 247 246 246 246 246 246 246 246 247 248 247 247 247 247 246 244 243 241 239 238 238 240 241 241 240 239 238 237 235 234 231 228 226 224 221 219 220 221 221 221 221 221 222 222 224 224 224 225 226 226 228 229 231 233 236 238 239 241 242 244 245 246 247 248 250 251 252 253
223 219 218 219 221 222 225 228 231 234 237 240 243 246 248 250 252 252 252 251 251 250 249 248 248 247 248 248 249 249 248 248 248 247 246 244 242 240 239 238 239 241 240 239 239 238 236 235 234 231 228 226 224 222 221 221 223 223 223 223 223 224 225 226 226 227 228 229 229 230 231 232 234 236 238 240 241 243 244 246 247 248 249 250 252 253
223 221 220 221 222 224 227 230 233 236 240 243 246 250 253 256 258 260 261 260 259 257 255 253 251 250 250 250 250 250 250 250 249 248 247 246 245 244 242 240 239 240 241 240 239 238 237 236 235 234 232 229 227 226 224 223 223 224 225 224 225 226 227 227 228 229 230 231 232 233 233 233 234 235 237 238 240 242 244 245 247 248 249 251 252 253
224 224 224 225 227 229 232 235 239 242 246 250 253 256 259 262 264 266 266 266 264 262 259 256 253 251 251 251 252 252 253 252 252 250 249 248 247 246 245 244 242 241 241 241 241 240 239 238 237 236 236 234 231 229 227 226 225 226 227 227 227 227 228 229 230 230 231 232 234 235 236 236 237 237 238 238 239 241 243 245 247 248 249 251 252 253
Height
10619 10620 10621 10621 10622 10622 10622 10624 10627 10626 10625 10630 10634 10634 10633 10632 10633 10633 10632 10639 10649 10652 10648 10646 10649 10652 10649 10649 10652 10656 10660 10660 10663 10665 10661 10660 10667 10672 10674 10674 10675 10678 10680 10683 10687 10691 10694 10698 10703 10704 10705 10706 10707 10709 10711 10712 10714 10717 10719 10719 10721 10724 10727 10727 10727 10730 10732 10732 10733 10735 10737 10737 10735 10734 10734 10735 10736 10736 10736 10737 10738 10738 10737 10738 10738 10740
10612 10614 10615 10614 10615 10616 10617 10620 10622 10620 10619 10626 10628 10624 10626 10629 10629 10628 10625 10629 10640 10645 10643 10640 10641 10645 10645 10645 10646 10649 10652 10650 10652 10660 10659 10654 10656 10664 10668 10668 10669 10671 10673 10675 10680 10684 10687 10691 10696 10699 10700 10701 10702 10704 10705 10707 10708 10710 10712 10714 10716 10719 10723 10725 10723 10725 10726 10726 10728 10731 10733 10733 10732 10732 10732 10733 10733 10733 10732 10733 10735 10735 10733 10734 10735 10737
10607 10608 10609 10608 10610 10612 10614 10616 10615 10613 10615 10621 10620 10618 10623 10624 10623 10624 10621 10620 10630 10638 10638 10635 10635 10638 10639 10640 10641 10641 10644 10643 10642 10650 10655 10650 10648 10654 10661 10662 10663 10665 10666 10668 10671 10676 10682 10685 10690 10694 10695 10696 10698 10699 10701 10701 10702 10705 10706 10708 10711 10713 10717 10719 10718 10718 10719 10721 10725 10728 10729 10728 10728 10729 10728 10729 10730 10730 10729 10729 10732 10732 10730 10730 10732 10733
10602 10602 10603 10605 10606 10608 10609 10609 10609 10609 10612 10615 10614 10615 10618 10617 10617 10619 10616 10614 10622 10631 10635 10630 10627 10631 10632 10633 10635 10633 10634 10637 10637 10638 10646 10648 10644 10645 10651 10654 10658 10661 10660 10662 10665 10669 10675 10680 10684 10689 10692 10693 10694 10695 10695 10695 10696 10698 10699 10702 10705 10707 10711 10712 10711 10712 10715 10718 10722 10724 10724 10723 10724 10725 10725 10726 10727 10727 10726 10727 10729 10729 10727 10727 10728 10730
10596 10596 10600 10602 10601 10603 10603 10604 10606 10606 10607 10610 10610 10611 10612 10611 10613 10613 10609 10611 10618 10624 10628 10623 10621 10626 10627 10626 10628 10626 10626 10630 10632 10631 10636 10642 10640 10638 10641 10645 10650 10655 10655 10654 10659 10663 10669 10675 10680 10686 10692 10692 10692 10691 10689 10689 10690 10691 10693 10695 10699 10702 10705 10706 10706 10708 10712 10716 10718 10719 10719 10718 10720 10721 10722 10723 10723 10724 10724 10724 10725 10725 10725 10724 10725 10727
10591 10591 10597 10598 10596 10598 10599 10600 10602 10601 10603 10605 10606 10607 10607 10607 10609 10609 10606 10607 10613 10617 10618 10616 10617 10621 10621 10621 10621 10619 10620 10623 10626 10627 10627 10632 10636 10634 10633 10637 10641 10648 10652 10649 10651 10657 10662 10668 10675 10680 10684 10685 10684 10683 10681 10680 10682 10685 10687 10690 10694 10698 10701 10702 10702 10703 10708 10711 10712 10714 10714 10714 10715 10716 10718 10719 10720 10720 10720 10720 10722 10722 10722 10722 10723 10725
10587 10587 10593 10594 10592 10595 10595 10596 10598 10597 10599 10601 10602 10602 10602 10605 10606 10606 10603 10601 10606 10610 10609 10611 10614 10615 10616 10617 10614 10612 10614 10615 10617 10621 10621 10623 10628 10629 10628 10632 10635 10639 10646 10646 10645 10651 10656 10661 10668 10672 10674 10675 10671 10668 10671 10673 10676 10679 10683 10685 10689 10693 10696 10698 10698 10699 10703 10706 10707 10708 10708 10709 10710 10712 10713 10715 10716 10717 10716 10716 10717 10718 10718 10720 10721 10722
10581 10582 10589 10590 10588 10590 10590 10591 10593 10594 10596 10596 10597 10598 10600 10603 10602 10600 10597 10597 10601 10603 10604 10607 10606 10608 10612 10611 10606 10604 10607 10609 10610 10611 10615 10618 10621 10624 10627 10629 10630 10631 10637 10642 10643 10646 10651 10655 10661 10665 10667 10665 10660 10661 10668 10671 10673 10675 10678 10681 10684 10687 10691 10693 10694 10695 10698 10701 10702 10702 10702 10703 10705 10707 10709 10711 10712 10712 10712 10712 10713 10714 10715 10717 10718 10718
10576 10577 10585 10586 10583 10585 10586 10587 10589 10591 10592 10590 10591 10594 10598 10598 10595 10593 10593 10594 10596 10597 10602 10603 10597 10599 10606 10605 10600 10598 10598 10602 10604 10603 10607 10614 10616 10620 10623 10624 10625 10626 10629 10637 10641 10643 10648 10651 10654 10657 10657 10655 10657 10663 10668 10670 10671 10672 10674 10677 10680 10683 10687 10690 10691 10693 10694 10693 10695 10696 10696 10697 10700 10703 10705 10706 10707 10707 10707 10707 10708 10710 10711 10712 10713 10714
10572 10573 10579 10581 10579 10578 10580 10583 10585 10588 10587 10584 10587 10590 10591 10591 10589 10588 10590 10590 10589 10592 10599 10597 10588 10589 10597 10599 10594 10590 10590 10593 10599 10600 10601 10607 10611 10613 10615 10618 10621 10621 10623 10632 10638 10643 10647 10646 10645 10647 10648 10649 10654 10661 10664 10666 10668 10669 10671 10674 10676 10678 10682 10685 10686 10686 10683 10683 10688 10690 10689 10691 10695 10697 10699 10700 10701 10702 10702 10703 10703 10705 10706 10707 10709 10710
10567 10570 10572 10575 10573 10572 10576 10579 10581 10583 10582 10580 10582 10584 10583 10584 10584 10584 10585 10584 10583 10589 10593 10588 10582 10582 10587 10590 10585 10583 10585 10587 10594 10597 10594 10597 10602 10605 10608 10613 10615 10615 10619 10628 10633 10637 10639 10637 10637 10641 10642 10645 10651 10656 10659 10662 10664 10667 10670 10672 10673 10675 10678 10680 10680 10679 10674 10676 10683 10684 10683 10686 10689 10690 10692 10694 10695 10696 10697 10698 10698 10698 10700 10702 10704 10705
10560 10565 10566 10566 10568 10570 10572 10574 10575 10577 10577 10576 10576 10577 10577 10578 10578 10579 10579 10578 10579 10583 10583 10579 10577 10577 10578 10578 10575 10578 10583 10582 10586 10590 10588 10590 10594 10598 10603 10607 10609 10611 10616 10622 10624 10627 10629 10630 10633 10636 10639 10643 10648 10653 10658 10660 10662 10665 10667 10670 10671 10673 10675 10677 10678 10677 10673 10673 10678 10678 10678 10681 10682 10683 10685 10688 10689 10690 10691 10692 10691 10692 10694 10697 10699 10700
10553 10559 10562 10561 10563 10565 10567 10568 10569 10572 10572 10571 10571 10571 10572 10571 10571 10574 10573 10571 10573 10576 10575 10572 10572 10571 10569 10567 10568 10575 10578 10574 10576 10581 10582 10585 10588 10592 10596 10600 10604 10607 10611 10615 10617 10620 10623 10624 10627 10632 10637 10642 10647 10652 10657 10660 10661 10662 10664 10667 10668 10669 10670 10671 10673 10675 10672 10670 10672 10672 10673 10675 10676 10677 10679 10682 10684 10684 10684 10685 10685 10687 10690 10692 10694 10695
10549 10553 10557 10557 10556 10559 10562 10562 10563 10567 10567 10566 10566 10565 10565 10563 10563 10567 10566 10564 10567 10569 10567 10565 10564 10564 10561 10561 10564 10569 10569 10566 10569 10574 10576 10579 10583 10587 10591 10595 10600 10604 10608 10612 10614 10615 10617 10620 10625 10632 10637 10643 10650 10654 10656 10659 10660 10660 10660 10661 10662 10663 10663 10663 10666 10668 10667 10668 10669 10666 10664 10665 10668 10670 10673 10676 10677 10678 10678 10679 10681 10683 10685 10687 10689 10690
10545 10547 10549 10552 10552 10554 10557 10557 10558 10560 10561 10561 10560 10559 10559 10557 10556 10559 10559 10558 10560 10561 10560 10558 10558 10557 10556 10559 10560 10561 10561 10561 10564 10570 10573 10575 10579 10583 10587 10591 10596 10601 10607 10611 10612 10613 10615 10619 10625 10630 10635 10641 10647 10652 10656 10659 10659 10656 10653 10652 10654 10655 10656 10658 10660 10662 10663 10665 10665 10660 10656 10658 10661 10664 10668 10671 10672 10672 10672 10673 10676 10679 10681 10683 10684 10686
10540 10541 10542 10546 10549 10550 10552 10552 10553 10555 10555 10555 10553 10552 10553 10551 10550 10552 10552 10552 10553 10554 10554 10553 10552 10550 10552 10555 10555 10554 10556 10557 10560 10566 10570 10573 10577 10580 10583 10588 10593 10599 10605 10610 10612 10614 10616 10620 10625 10627 10628 10631 10637 10645 10654 10658 10655 10647 10642 10642 10645 10648 10651 10655 10658 10660 10660 10662 10662 10658 10654 10654 10656 10660 10663 10666 10667 10667 10666 10668 10672 10675 10677 10679 10680 10681
10533 10535 10536 10541 10544 10546 10546 10546 10549 10550 10548 10548 10548 10546 10546 10545 10545 10546 10545 10545 10546 10547 10547 10547 10546 10544 10548 10552 10551 10550 10553 10554 10557 10561 10566 10571 10575 10578 10581 10586 10590 10596 10603 10608 10610 10611 10613 10619 10624 10624 10624 10625 10631 10642 10650 10652 10644 10632 10627 10633 10638 10642 10648 10651 10655 10657 10658 10659 10660 10658 10656 10653 10654 10657 10660 10662 10663 10662 10662 10665 10669 10672 10674 10675 10676 10677
10528 10529 10531 10536 10538 10539 10540 10541 10543 10545 10543 10542 10542 10540 10539 10539 10539 10540 10539 10539 10539 10540 10541 10541 10540 10540 10545 10549 10548 10547 10549 10552 10555 10559 10564 10570 10573 10577 10580 10583 10588 10594 10600 10604 10606 10606 10608 10615 10619 10621 10623 10626 10631 10639 10642 10638 10627 10617 10620 10630 10635 10640 10645 10648 10651 10654 10655 10656 10657 10657 10657 10655 10654 10655 10657 10659 10659 10658 10659 10661 10665 10668 10669 10670 10672 10672
10523 10525 10526 10530 10531 10531 10533 10536 10538 10538 10538 10536 10535 10535 10534 10533 10533 10533 10533 10533 10533 10534 10534 10535 10535 10537 10542 10544 10543 10544 10546 10549 10553 10558 10563 10569 10573 10577 10580 10582 10586 10591 10594 10596 10599 10601 10605 10611 10616 10620 10624 10626 10630 10632 10629 10625 10620 10618 10625 10632 10635 10640 10644 10646 10648 10650 10651 10653 10654 10655 10656 10655 10655 10654 10655 10655 10655 10655 10655 10658 10661 10664 10665 10666 10667 10668
10518 10520 10521 10524 10524 10524 10528 10530 10531 10532 10532 10530 10529 10531 10529 10527 10527 10528 10527 10528 10528 10528 10529 10529 10531 10534 10537 10539 10540 10543 10545 10547 10551 10556 10562 10567 10569 10572 10575 10578 10580 10582 10584 10586 10590 10594 10599 10605 10611 10617 10622 10623 10626 10625 10620 10620 10623 10625 10630 10634 10636 10640 10642 10644 10646 10647 10648 10650 10651 10651 10652 10653 10653 10652 10651 10652 10652 10652 10653 10655 10657 10659 10661 10662 10662 10663
10513 10515 10515 10517 10518 10521 10523 10522 10523 10525 10526 10524 10524 10525 10524 10522 10522 10522 10523 10523 10523 10523 10524 10524 10526 10530 10532 10535 10540 10543 10545 10545 10547 10552 10558 10560 10561 10562 10566 10569 10571 10572 10575 10578 10581 10587 10592 10597 10602 10607 10612 10616 10620 10618 10615 10619 10623 10625 10629 10632 10635 10638 10640 10642 10644 10645 10645 10647 10647 10648 10649 10650 10650 10649 10648 10648 10648 10649 10650 10651 10652 10655 10657 10657 10657 10658
10507 10508 10508 10511 10513 10516 10516 10515 10516 10520 10519 10518 10517 10518 10518 10517 10516 10516 10518 10519 10518 10519 10519 10519 10523 10526 10528 10532 10538 10542 10543 10544 10544 10546 10548 10549 10550 10554 10559 10562 10563 10565 10568 10571 10574 10579 10584 10590 10594 10598 10603 10608 10609 10608 10611 10618 10624 10627 10629 10630 10632 10635 10635 10637 10638 10640 10642 10645 10645 10645 10646 10647 10647 10646 10644 10642 10644 10646 10646 10647 10648 10650 10652 10652 10652 10653
10502 10502 10504 10507 10508 10508 10509 10510 10511 10514 10513 10512 10512 10512 10512 10512 10511 10511 10512 10514 10514 10515 10515 10516 10519 10522 10525 10528 10533 10537 10539 10541 10542 10542 10541 10540 10543 10548 10551 10554 10556 10559 10562 10565 10569 10572 10577 10583 10587 10592 10596 10599 10600 10603 10609 10616 10620 10622 10623 10623 10624 10625 10625 10627 10630 10634 10639 10642 10643 10643 10643 10643 10643 10642 10640 10639 10641 10642 10641 10642 10644 10645 10646 10647 10648 10649
10496 10497 10499 10502 10502 10502 10504 10505 10507 10508 10508 10507 10506 10506 10506 10507 10506 10506 10507 10509 10510 10510 10511 10513 10514 10518 10522 10524 10527 10530 10532 10535 10538 10538 10537 10537 10539 10542 10545 10547 10549 10553 10556 10559 10563 10567 10571 10575 10579 10584 10588 10591 10595 10601 10605 10608 10612 10612 10610 10608 10608 10608 10612 10617 10623 10628 10635 10638 10640 10640 10640 10639 10639 10639 10637 10636 10637 10637 10637 10638 10639 10640 10642 10642 10643 10643
10489 10491 10494 10496 10497 10498 10499 10500 10502 10502 10502 10502 10502 10502 10503 10503 10502 10501 10504 10505 10505 10506 10507 10508 10511 10514 10517 10520 10522 10522 10523 10526 10530 10531 10532 10533 10535 10537 10539 10541 10544 10547 10550 10553 10557 10561 10564 10568 10572 10576 10580 10585 10589 10594 10597 10601 10602 10599 10594 10592 10594 10598 10605 10612 10619 10627 10633 10636 10638 10638 10636 10634 10634 10635 10634 10634 10634 10633 10633 10633 10634 10635 10636 10637 10637 10638
10484 10487 10489 10491 10492 10493 10493 10495 10496 10496 10496 10497 10498 10499 10499 10499 10498 10499 10500 10500 10501 10502 10503 10505 10508 10510 10512 10515 10516 10515 10516 10519 10523 10525 10527 10528 10530 10532 10534 10537 10539 10542 10545 10548 10552 10555 10558 10562 10565 10568 10572 10577 10581 10586 10589 10588 10586 10584 10584 10586 10591 10598 10604 10612 10620 10628 10633 10634 10634 10634 10631 10628 10628 10629 10630 10629 10629 10629 10628 10628 10629 10630 10630 10631 10632 10633
10479 10482 10484 10485 10486 10487 10488 10490 10491 10489 10490 10492 10493 10494 10494 10494 10496 10496 10495 10497 10499 10500 10502 10503 10505 10506 10508 10510 10511 10511 10513 10516 10518 10520 10522 10524 10525 10528 10530 10532 10534 10536 10540 10544 10547 10550 10553 10555 10559 10561 10565 10569 10573 10577 10579 10578 10577 10579 10582 10587 10592 10598 10604 10611 10618 10624 10628 10628 10628 10629 10627 10623 10622 10624 10624 10623 10623 10623 10623 10623 10624 10624 10624 10626 10627 10628
10474 10476 10477 10478 10480 10481 10482 10485 10485 10485 10486 10487 10487 10488 10489 10490 10493 10492 10492 10495 10497 10498 10499 10500 10501 10502 10503 10505 10506 10507 10509 10511 10513 10515 10518 10520 10522 10524 10525 10527 10529 10531 10535 10539 10542 10545 10547 10550 10552 10555 10558 10562 10565 10568 10571 10572 10574 10578 10581 10586 10591 10596 10601 10607 10612 10617 10620 10622 10622 10622 10620 10618 10617 10617 10617 10616 10616 10617 10617 10617 10618 10618 10619 10620 10622 10623
10468 10469 10470 10471 10473 10475 10477 10479 10481 10481 10481 10481 10483 10484 10485 10487 10489 10489 10490 10491 10493 10493 10494 10495 10497 10497 10498 10500 10502 10503 10505 10507 10509 10512 10514 10516 10518 10520 10521 10523 10525 10527 10530 10533 10536 10539 10542 10544 10546 10548 10551 10554 10558 10561 10564 10567 10571 10575 10579 10584 10588 10593 10598 10602 10606 10609 10612 10614 10614 10614 10614 10613 10611 10611 10610 10610 10610 10611 10611 10611 10611 10612 10614 10616 10617 10617
10461 10462 10465 10465 10466 10470 10472 10474 10477 10477 10475 10476 10479 10480 10481 10483 10484 10485 10486 10486 10486 10488 10490 10491 10492 10492 10494 10497 10498 10499 10501 10503 10505 10508 10510 10512 10514 10515 10516 10518 10520 10522 10525 10528 10530 10533 10536 10538 10540 10542 10545 10548 10552 10555 10559 10563 10567 10572 10576 10580 10585 10590 10594 10597 10599 10602 10604 10606 10606 10607 10609 10608 10605 10604 10605 10605 10605 10606 10606 10605 10605 10606 10609 10611 10610 10610
10455 10457 10459 10459 10460 10464 10466 10468 10471 10472 10470 10472 10474 10473 10475 10479 10480 10481 10481 10481 10482 10485 10487 10488 10488 10488 10491 10493 10494 10495 10497 10498 10500 10503 10505 10507 10508 10510 10511 10514 10516 10517 10520 10523 10525 10528 10531 10533 10535 10537 10540 10543 10547 10550 10554 10559 10563 10568 10573 10576 10581 10585 10588 10590 10593 10595 10596 10598 10600 10601 10604 10603 10599 10597 10599 10599 10599 10600 10600 10598 10597 10599 10602 10603 10604 10605
10449 10451 10453 10454 10454 10457 10460 10463 10465 10466 10465 10467 10467 10466 10469 10474 10476 10477 10477 10477 10479 10481 10483 10484 10484 10485 10487 10489 10490 10491 10492 10494 10496 10498 10500 10501 10503 10505 10507 10509 10511 10512 10515 10518 10520 10523 10525 10527 10530 10532 10535 10539 10543 10546 10551 10555 10560 10564 10569 10573 10577 10580 10582 10584 10585 10587 10589 10591 10592 10594 10598 10598 10594 10592 10593 10594 10593 10594 10594 10591 10591 10592 10594 10596 10598 10600
10442 10444 10447 10448 10449 10451 10454 10456 10458 10459 10460 10460 10460 10460 10464 10467 10471 10473 10472 10472 10474 10477 10478 10479 10479 10480 10483 10484 10485 10487 10488 10490 10492 10493 10495 10496 10498 10500 10502 10504 10506 10508 10510 10513 10516 10518 10520 10522 10525 10528 10531 10535 10539 10542 10546 10550 10555 10560 10564 10569 10572 10574 10576 10576 10576 10579 10582 10583 10584 10587 10591 10592 10589 10587 10588 10588 10587 10587 10587 10586 10586 10587 10588 10591 10593 10593
10437 10438 10441 10442 10443 10446 10448 10449 10452 10453 10454 10455 10455 10455 10458 10461 10465 10468 10467 10466 10469 10472 10473 10474 10474 10476 10478 10480 10481 10483 10484 10486 10487 10489 10490 10491 10493 10495 10497 10499 10502 10504 10506 10509 10511 10513 10516 10518 10520 10523 10527 10531 10534 10538 10542 10545 10550 10554 10559 10563 10566 10568 10570 10569 10568 10571 10574 10576 10578 10580 10583 10584 10584 10583 10582 10582 10582 10582 10581 10581 10582 10583 10584 10586 10587 10587
10430 10432 10435 10436 10437 10440 10442 10443 10446 10447 10448 10451 10451 10450 10452 10455 10458 10462 10462 10461 10464 10467 10468 10469 10470 10471 10473 10475 10477 10478 10480 10481 10483 10484 10485 10487 10488 10490 10492 10495 10497 10500 10502 10505 10507 10509 10512 10514 10516 10519 10522 10526 10529 10532 10536 10540 10544 10549 10554 10557 10559 10561 10563 10562 10562 10564 10567 10569 10571 10574 10576 10577 10577 10576 10576 10576 10577 10577 10577 10577 10578 10579 10580 10581 10581 10582
10423 10425 10428 10429 10430 10433 10435 10436 10438 10441 10443 10445 10445 10445 10446 10448 10451 10454 10456 10456 10459 10461 10463 10465 10465 10466 10468 10470 10472 10474 10475 10476 10478 10479 10481 10482 10483 10485 10487 10490 10493 10496 10498 10500 10503 10505 10507 10509 10511 10514 10517 10520 10523 10526 10530 10534 10539 10543 10547 10550 10553 10555 10557 10558 10559 10561 10562 10564 10566 10567 10569 10569 10570 10570 10570 10571 10572 10573 10573 10573 10574 10576 10576 10576 10576 10576
10415 10417 10419 10421 10422 10425 10428 10429 10431 10433 10436 10437 10438 10439 10440 10441 10444 10447 10449 10451 10453 10456 10458 10460 10461 10462 10463 10464 10467 10468 10470 10471 10472 10474 10475 10477 10478 10481 10483 10485 10488 10492 10494 10496 10498 10500 10502 10504 10507 10509 10512 10515 10518 10521 10524 10528 10533 10537 10541 10544 10547 10550 10552 10553 10555 10557 10558 10559 10561 10562 10562 10563 10563 10563 10564 10565 10566 10568 10568 10568 10569 10571 10571 10570 10569 10569
10406 10408 10410 10411 10413 10417 10420 10422 10424 10427 10429 10431 10432 10433 10433 10434 10438 10441 10443 10446 10448 10450 10452 10454 10455 10457 10458 10459 10461 10462 10464 10465 10467 10468 10470 10472 10474 10476 10478 10481 10483 10486 10489 10492 10494 10496 10497 10500 10502 10504 10507 10510 10513 10515 10519 10524 10528 10531 10534 10538 10542 10544 10546 10547 10549 10551 10553 10554 10555 10556 10556 10556 10556 10557 10557 10559 10560 10561 10562 10561 10562 10564 10564 10563 10562 10563
10397 10399 10400 10401 10404 10409 10413 10415 10418 10421 10422 10424 10425 10425 10426 10427 10430 10434 10438 10441 10443 10445 10447 10448 10450 10451 10453 10454 10455 10456 10458 10461 10462 10464 10466 10468 10470 10471 10473 10476 10478 10481 10484 10487 10489 10491 10493 10495 10497 10499 10502 10505 10507 10511 10515 10519 10523 10525 10528 10532 10535 10537 10538 10540 10542 10544 10545 10546 10547 10549 10549 10549 10549 10550 10551 10552 10553 10554 10555 10555 10556 10557 10556 10556 10556 10556
10388 10390 10392 10394 10397 10402 10407 10410 10413 10414 10415 10416 10417 10418 10419 10421 10424 10428 10432 10436 10438 10440 10441 10443 10444 10446 10447 10448 10449 10450 10453 10456 10457 10459 10460 10462 10464 10466 10468 10470 10473 10476 10478 10481 10484 10486 10487 10489 10492 10494 10497 10499 10502 10505 10509 10513 10517 10519 10522 10525 10528 10530 10532 10533 10535 10536 10537 10537 10538 10540 10541 10542 10543 10544 10545 10546 10547 10547 10548 10548 10548 10549 10550 10550 10550 10550
10379 10382 10385 10388 10392 10397 10401 10404 10406 10406 10407 10408 10410 10411 10413 10416 10419 10422 10426 10430 10432 10435 10436 10437 10439 10441 10442 10443 10444 10446 10448 10450 10451 10453 10454 10457 10459 10460 10463 10465 10467 10470 10473 10476 10478 10480 10482 10483 10486 10488 10491 10493 10496 10499 10504 10508 10511 10513 10515 10518 10520 10523 10526 10529 10530 10530 10530 10530 10530 10531 10533 10535 10537 10538 10539 10540 10540 10541 10541 10542 10542 10542 10543 10543 10543 10543
10372 10376 10380 10383 10387 10391 10394 10397 10398 10398 10399 10401 10403 10404 10407 10411 10414 10416 10420 10423 10426 10428 10431 10432 10434 10435 10437 10438 10439 10441 10442 10444 10446 10448 10449 10451 10453 10455 10457 10460 10462 10464 10467 10469 10472 10475 10476 10478 10481 10483 10485 10488 10490 10494 10497 10501 10504 10506 10508 10511 10513 10517 10520 10522 10524 10525 10525 10525 10526 10527 10528 10530 10532 10533 10532 10532 10533 10534 10535 10536 10536 10536 10537 10537 10536 10536
10366 10371 10374 10377 10380 10383 10387 10389 10390 10391 10392 10395 10398 10399 10401 10405 10408 10410 10414 10417 10420 10422 10424 10427 10428 10430 10431 10433 10434 10435 10437 10438 10440 10442 10444 10446 10447 10449 10451 10453 10456 10458 10460 10463 10465 10468 10470 10472 10474 10477 10480 10482 10485 10488 10492 10495 10498 10500 10502 10503 10506 10509 10513 10515 10516 10518 10519 10520 10522 10523 10523 10524 10526 10526 10526 10525 10526 10528 10529 10529 10530 10530 10531 10531 10531 10531
10361 10364 10367 10369 10371 10375 10379 10381 10382 10383 10385 10388 10391 10394 10395 10398 10401 10404 10408 10411 10413 10416 10418 10420 10422 10424 10426 10427 10428 10429 10431 10432 10434 10436 10438 10440 10441 10443 10444 10446 10449 10451 10454 10456 10459 10462 10464 10466 10469 10472 10475 10477 10480 10483 10486 10489 10491 10493 10495 10496 10498 10501 10504 10506 10508 10510 10511 10513 10515 10516 10517 10518 10519 10519 10520 10520 10520 10521 10522 10523 10524 10525 10525 10525 10525 10525
10354 10358 10361 10363 10364 10368 10371 10372 10373 10376 10379 10381 10385 10388 10390 10392 10395 10398 10402 10404 10407 10410 10412 10413 10415 10417 10419 10420 10422 10423 10424 10425 10427 10430 10432 10434 10435 10436 10437 10439 10442 10444 10447 10450 10452 10455 10457 10460 10463 10466 10469 10471 10474 10476 10479 10482 10484 10486 10488 10490 10492 10493 10495 10498 10499 10501 10503 10505 10507 10509 10510 10510 10511 10511 10512 10513 10514 10514 10516 10517 10517 10518 10517 10517 10517 10517
10348 10352 10355 10356 10359 10362 10365 10366 10368 10370 10373 10375 10378 10382 10384 10387 10390 10393 10396 10399 10401 10404 10406 10407 10409 10410 10412 10414 10415 10416 10418 10419 10421 10423 10425 10426 10428 10429 10430 10432 10434 10437 10440 10443 10445 10447 10450 10454 10456 10459 10462 10465 10467 10469 10472 10474 10476 10479 10481 10483 10485 10486 10488 10490 10491 10493 10495 10497 10498 10500 10501 10502 10502 10503 10504 10505 10506 10507 10508 10508 10509 10509 10509 10509 10509 10510
10344 10348 10350 10352 10354 10358 10360 10361 10363 10366 10368 10370 10373 10376 10379 10382 10384 10387 10390 10393 10395 10397 10399 10401 10402 10404 10405 10406 10408 10409 10411 10412 10414 10415 10417 10419 10420 10422 10423 10425 10427 10430 10432 10435 10438 10441 10443 10447 10449 10451 10454 10457 10459 10462 10464 10465 10468 10471 10473 10476 10478 10479 10481 10483 10484 10485 10486 10488 10489 10491 10493 10494 10494 10495 10496 10497 10498 10499 10499 10499 10499 10500 10501 10501 10502 10502
10342 10345 10347 10349 10351 10354 10356 10358 10360 10362 10364 10366 10368 10371 10373 10376 10378 10381 10384 10387 10389 10391 10392 10394 10395 10397 10398 10399 10400 10402 10403 10405 10407 10408 10410 10411 10412 10414 10416 10418 10420 10422 10424 10427 10430 10433 10436 10439 10441 10443 10446 10449 10451 10453 10455 10457 10459 10462 10465 10468 10470 10471 10473 10475 10476 10477 10478 10479 10481 10482 10484 10485 10486 10487 10489 10489 10490 10490 10490 10490 10491 10491 10492 10492 10493 10493
10340 10342 10345 10346 10348 10351 10353 10355 10356 10358 10360 10362 10364 10366 10368 10370 10373 10375 10378 10380 10382 10384 10386 10387 10389 10390 10391 10392 10393 10394 10395 10397 10399 10400 10402 10404 10405 10406 10408 10410 10412 10414 10416 10418 10421 10423 10426 10430 10432 10435 10437 10440 10442 10444 10446 10448 10450 10453 10456 10459 10461 10463 10465 10467 10468 10470 10471 10472 10472 10473 10475 10476 10477 10479 10480 10481 10482 10482 10482 10482 10482 10483 10483 10483 10484 10484
10338 10340 10342 10344 10346 10348 10349 10351 10353 10355 10357 10359 10360 10362 10364 10366 10368 10370 10372 10374 10376 10378 10379 10380 10382 10383 10384 10385 10386 10387 10388 10389 10390 10392 10394 10395 10397 10399 10400 10402 10404 10406 10408 10410 10412 10415 10417 10420 10423 10426 10428 10430 10432 10435 10437 10439 10442 10444 10447 10450 10452 10454 10456 10458 10460 10461 10462 10463 10464 10465 10466 10468 10469 10469 10470 10471 10473 10473 10474 10474 10474 10475 10475 10475 10475 10475
10336 10339 10341 10342 10344 10345 10347 10348 10350 10352 10354 10356 10358 10360 10361 10363 10364 10365 10367 10368 10369 10369 10370 10372 10373 10375 10376 10377 10378 10379 10380 10381 10382 10384 10385 10387 10388 10390 10391 10393 10396 10398 10400 10402 10404 10406 10409 10411 10414 10416 10418 10420 10422 10425 10427 10430 10433 10436 10438 10440 10442 10445 10447 10448 10450 10452 10453 10454 10455 10456 10458 10459 10460 10460 10461 10462 10463 10464 10465 10465 10466 10466 10466 10466 10466 10466